Regional Weather Roundup
Issued by NWS Albany, NY

Home | Current Version | Previous Version | Text Only | Print | Product List | Glossary On
Versions: 1 2 3 4 5 6 7 8 9 10 11 12 13 14 15 16 17 18 19 20 21 22 23 24 25 26 27 28 29 30 31 32 33 34 35 36 37 38 39 40 41 42 43 44 45 46 47 48 49 50
000
ASUS41 KALY 041810
RWRALY

NEW YORK STATE HOURLY WEATHER ROUNDUP
NATIONAL WEATHER SERVICE ALBANY NY
200 PM EDT TUE AUG 04 2015

NOTE: "FAIR" INDICATES FEW OR NO CLOUDS BELOW 12,000 FEET WITH NO
SIGNIFICANT WEATHER AND/OR NO OBSTRUCTIONS TO VISIBILITY.

NYZ032-033-038>043-046>054-057>066-NYZ062>081-041900-
EAST


CITY           SKY/WX    TMP DP  RH WIND       PRES   REMARKS
ALBANY         PTSUNNY   79  65  62 NW8       29.82S
GLENS FALLS    SUNNY     83  57  41 SW13      29.79F
POUGHKEEPSIE   MOSUNNY   90  59  35 SW13G20   29.80F
NEWBURGH       MOSUNNY   84  68  58 W16       29.84F
MONTGOMERY     MOSUNNY   87  66  49 SW10      29.82F
WHITE PLAINS   MOSUNNY   86  58  38 W8G18     29.84S
ISLIP          MOSUNNY   86  67  52 S18       29.83S
NEW YORK CITY  MOSUNNY   88  60  38 W14G25    29.83F
CENTRAL PARK   SUNNY     88  61  40 W8        29.87S
$$

NYZ005>009-017-018-044>046-055-056-041900-
CENTRAL


CITY           SKY/WX    TMP DP  RH WIND       PRES   REMARKS
FULTON         CLOUDY    73  59  61 W8        29.89R
SYRACUSE       CLOUDY    76  58  53 W12       29.87F
ROME           PTSUNNY   75  58  55 W12       29.88S
ELMIRA         PTSUNNY   80  57  45 W17       29.89S
BINGHAMTON     CLOUDY    72  59  63 W7        29.92R
MONTICELLO     MOSUNNY   79  59  50 W13G21    29.90S
$$

NYZ026>034-041>043-041900-
NORTH


CITY           SKY/WX    TMP DP  RH WIND       PRES   REMARKS
WATERTOWN      SUNNY     76  56  49 W14G24    29.86S
FORT DRUM      NOT AVBL
MASSENA        MOSUNNY   77  56  48 SW13G22   29.82S
SARANAC LAKE   CLOUDY    68  54  60 SW10G18   29.86R
PLATTSBURGH    PTSUNNY   78  59  51 S5        29.80S
$$

NYZ001>004-010>016-019>021-041900-
WEST


CITY           SKY/WX    TMP DP  RH WIND       PRES   REMARKS
NIAGARA FALLS  PTSUNNY   75  56  51 W10       29.88S
BUFFALO        MOSUNNY   76  55  48 SW21G29   29.89S
DUNKIRK        SUNNY     75  56  51 SW16G23   29.93S
JAMESTOWN      MOSUNNY   72  52  49 W15G21    29.97S
WELLSVILLE     MOSUNNY   73  55  53 W13       29.98S
ROCHESTER      PTSUNNY   75  55  49 NW12      29.88F
PENN YAN       PTSUNNY   72  61  68 SW7       29.92S
$$

             KEY
       WCI = WIND CHILL INDEX
       VSB = VISIBILITY
       HX  = HEAT INDEX
$$


USA.gov is the U.S. government's official web portal to all federal, state and local government web resources and services.